Regional Weather Roundup
Issued by NWS

Home | Current Version | Previous Version | Text Only | Print | Product List | Glossary On
Versions: 1 2 3 4 5 6 7 8 9 10 11 12 13 14 15 16 17 18 19 20 21 22 23 24 25 26 27 28 29 30 31 32 33 34 35 36 37 38 39 40 41 42 43 44 45 46 47 48 49 50
000
ASUS42 KFFC 300203
RWRGA
WEATHER ROUNDUP FOR GEORGIA
NATIONAL WEATHER SERVICE PEACHTREE CITY GA
1000 PM EDT MON MAY 29 2017

NOTE: "FAIR" INDICATES FEW OR NO CLOUDS BELOW 12,000 FEET WITH NO
SIGNIFICANT WEATHER AND/OR OBSTRUCTIONS TO VISIBILITY.

* = USE WITH CAUTION. THE STATIONS MARKED WITH AN ASTERISK MAY NOT
REPORT WEATHER SUCH AS PRECIPITATION, FOG, OR THUNDER AND ARE NOT
QUALITY CONTROLLED BY NWS.

THE REMARK "TC" DENOTES TEMPERATURE READING IN DEGREES CELSIUS.

GAZ001>058-300300-
NORTH GEORGIA

CITY           SKY/WX    TMP DP  RH WIND       PRES   REMARKS
ATLANTA        CLOUDY    73  70  90 SW5       30.05R
ATHENS         CLOUDY    69  69 100 CALM      30.05R
CHAMBLEE       CLOUDY    70  67  90 N5        30.06R
PEACHTREE CITY MOCLDY    71  71 100 CALM      30.06R
ROME           RAIN      71  70  96 W5        30.06R FOG
WEST ATLANTA   PTCLDY    71  71 100 CALM      30.05R
GAINESVILLE    CLOUDY    69  68  96 SW3       30.08R
CARTERSVILLE   CLOUDY    71  67  87 CALM      30.05R


CITY           SKY/WX    TMP DP  RH WIND       PRES   REMARKS
DALTON*        PTCLDY    63  63 100 CALM      30.04F
CANTON*        CLOUDY    70  64  83 NW6       30.09R HAZE
$$

GAZ059>098-102>109-300300-
CENTRAL GEORGIA

CITY           SKY/WX    TMP DP  RH WIND       PRES   REMARKS
AUGUSTA-BUSH   CLOUDY    72  69  90 SE3       30.02R
AUGUSTA-DANIEL CLOUDY    72  66  81 CALM      30.03S
COLUMBUS       PTCLDY    78  70  76 NW7       30.03R
MACON          MOCLDY    75  70  84 N5        30.03R
ROBINS AFB     MOCLDY    74  71  92 CALM      30.02R FOG


CITY           SKY/WX    TMP DP  RH WIND       PRES   REMARKS
LAGRANGE*      PTCLDY    73  73 100 CALM      30.05R
SYLVANIA*      CLEAR     79  73  83 CALM      30.02R
MILLEDGEVILLE* MOCLDY    72  72 100 CALM      30.04S
$$

GAZ099>101-110>166-300300-
SOUTH GEORGIA

CITY           SKY/WX    TMP DP  RH WIND       PRES   REMARKS
SAVANNAH       PTCLDY    80  72  76 S6        30.02R
VALDOSTA       CLEAR     80  72  76 SW5       30.04R
ALMA           CLEAR     80  71  74 S3        30.02R
ST SIMONS      CLEAR     82  72  71 S10       30.02S
FT STEWART     PTCLDY    82  74  77 S3        30.00R
ALBANY         PTCLDY    81  71  71 SW3       30.05R
HUNTER AFB     PTCLDY    79  78  94 S6        30.00R
MOODY AFB      CLEAR     83  73  72 S7        30.03R
BRUNSWICK      CLEAR     81  73  78 S8        30.04R


CITY           SKY/WX    TMP DP  RH WIND       PRES   REMARKS
BAINBRIDGE*    CLEAR     81  70  69 SW9       30.04R
MOULTRIE*      CLEAR     82  73  74 S6        30.05R
VIDALIA*       CLEAR     81  72  74 CALM      30.03R
WAYCROSS*      CLEAR     87  74  65 W5        30.02R HX  94
DOUGLAS*       CLEAR     81  68  65 CALM      30.04R
$$




USA.gov is the U.S. government's official web portal to all federal, state and local government web resources and services.